Location: Slave Lake
(55.2830°N, 114.7830°W)
Time: 22:52:54
(UTC-06:00)

Amateur Radio Satellites - All Passes

Search period start: 23 July 2017 22:22
Search period end: 24 July 2017 22:22
Location: Slave Lake, 55.2830°N, 114.7830°W

Satellite Date Start Highest point End Downlink Frequencies (MHz)
Time Altitude Azimuth
O/OREOS (USA 219) 23 Jul 22:27:35 22:28:26 10° 12° (NNE) 22:29:18 437.305
UWE-3 23 Jul 22:32:32 22:34:24 12° 276° (W) 22:36:15 435.000/436.395/437.385
ESTCUBE 1 23 Jul 22:32:42 22:35:53 19° 55° (NE) 22:39:05 437.505/2401.250
TIGRISAT 23 Jul 22:39:56 22:42:49 17° 87° (E) 22:45:40 435.000
AO-85 23 Jul 22:43:41 22:47:26 35° 235° (SW) 22:51:24 145.980
BEESAT 3 23 Jul 22:47:26 22:51:03 32° 237° (WSW) 22:54:36 437.485
DELFI C3 23 Jul 22:48:31 22:52:16 42° 262° (W) 22:56:05 145.870
ZACube-1 23 Jul 22:49:17 22:51:24 13° 275° (W) 22:53:31 437.345
SPROUT 23 Jul 22:53:24 22:54:07 10° 47° (NE) 22:54:51 437.525
STRAND 1 23 Jul 22:58:13 23:02:28 27° 304° (NW) 23:06:41 437.568
ISS 23 Jul 23:07:09 23:09:15 16° 149° (SSE) 23:11:22 437.550
BEESAT 2 23 Jul 23:23:44 23:27:30 37° 235° (SW) 23:31:15 435.950
VELOX 1 23 Jul 23:25:03 23:27:55 17° 52° (NE) 23:30:49 145.980
M-CUBED/EXP-1 PRIME 23 Jul 23:26:09 23:29:14 18° 95° (E) 23:32:21 437.505
UNISAT 6 23 Jul 23:30:59 23:35:16 48° 99° (E) 23:39:26 437.425
FO-29 23 Jul 23:33:25 23:40:59 78° 104° (ESE) 23:47:42 435.910
EO-88 23 Jul 23:38:17 23:41:00 20° 269° (W) 23:43:44 145.990 - 145.960
YUBILEINY 23 Jul 23:42:07 23:47:47 18° 324° (NW) 23:53:26 435.215
LO-87 23 Jul 23:45:46 23:49:26 84° 256° (WSW) 23:53:07 145.935 - 145.965
Tancredo 1 23 Jul 23:48:56 23:51:38 32° 166° (SSE) 23:54:19 437.200
nSIGHT-1 23 Jul 23:49:46 23:52:30 25° 158° (SSE) 23:55:14 .
PRISM 23 Jul 23:54:28 23:58:39 65° 103° (ESE) 00:02:47 437.425
O/OREOS (USA 219) 24 Jul 00:05:58 00:09:34 23° 37° (NE) 00:13:08 437.305
ESTCUBE 1 24 Jul 00:07:42 00:12:11 82° 255° (WSW) 00:16:43 437.505/2401.250
POLYITAN 1 24 Jul 00:13:11 00:14:29 11° 84° (E) 00:15:47 437.675
TIGRISAT 24 Jul 00:15:41 00:20:06 76° 287° (WNW) 00:24:23 435.000
AIST 2D 24 Jul 00:20:11 00:22:58 22° 93° (E) 00:25:44 435.315
UKube-1 24 Jul 00:21:09 00:23:36 15° 51° (NE) 00:26:04 .
RS-15 24 Jul 00:22:25 00:34:50 75° 35° (NE) 00:46:39 29.354- 29.394
SPROUT 24 Jul 00:24:56 00:29:05 48° 67° (ENE) 00:33:15 437.525
QB50P2 24 Jul 00:25:07 00:27:42 16° 87° (E) 00:30:18 145.880/145.840
EO-79 24 Jul 00:37:23 00:40:23 19° 89° (E) 00:43:22 145.935-145.965
NANOSAT C BR1 24 Jul 00:38:26 00:41:17 17° 89° (E) 00:44:06 145.865
ISS 24 Jul 00:42:07 00:45:09 37° 168° (SSE) 00:48:12 437.550
VELOX 1 24 Jul 00:59:19 01:03:46 85° 72° (ENE) 01:08:15 145.980
M-CUBED/EXP-1 PRIME 24 Jul 00:59:38 01:04:09 87° 292° (WNW) 01:08:49 437.505
50 SAT 24 Jul 01:01:26 01:04:38 39° 67° (ENE) 01:07:52 437.505
UNISAT 6 24 Jul 01:08:03 01:11:48 28° 300° (WNW) 01:15:30 437.425
DX 1 24 Jul 01:09:28 01:13:36 43° 65° (ENE) 01:17:46 434.975-435.025
FO-29 24 Jul 01:18:49 01:25:25 34° 308° (NW) 01:31:27 435.910
LO-87 24 Jul 01:22:44 01:23:29 11° 275° (W) 01:24:16 145.935 - 145.965
Tancredo 1 24 Jul 01:23:55 01:26:42 38° 186° (S) 01:29:29 437.200
BEESAT 24 Jul 01:24:42 01:26:07 11° 43° (NE) 01:27:32 436.000
nSIGHT-1 24 Jul 01:25:25 01:28:29 43° 178° (S) 01:31:35 .
PRISM 24 Jul 01:30:23 01:33:34 21° 303° (WNW) 01:36:43 437.425
ITUPSAT 1 24 Jul 01:36:04 01:38:17 13° 46° (NE) 01:40:29 437.325
Oscar 19 24 Jul 01:36:32 01:37:58 11° 81° (E) 01:39:26 437.125/150
O/OREOS (USA 219) 24 Jul 01:45:03 01:49:34 87° 240° (WSW) 01:54:04 437.305
DUCHIFAT 1 24 Jul 01:46:22 01:50:32 60° 101° (ESE) 01:54:41 145.980
POLYITAN 1 24 Jul 01:46:50 01:51:05 73° 104° (ESE) 01:55:16 437.675
ESTCUBE 1 24 Jul 01:47:28 01:49:45 14° 275° (W) 01:52:02 437.505/2401.250
Gurwin Techsat 1B 24 Jul 01:52:29 01:53:23 10° 80° (E) 01:54:17 435.225
AIST 2D 24 Jul 01:53:03 01:56:20 39° 292° (WNW) 01:59:36 435.315
TIGRISAT 24 Jul 01:53:35 01:56:05 15° 309° (NW) 01:58:32 435.000
UKube-1 24 Jul 01:54:37 01:58:57 75° 70° (ENE) 02:03:17 .
QB50P2 24 Jul 01:59:49 02:04:05 80° 287° (WNW) 02:08:17 145.880/145.840
SPROUT 24 Jul 02:01:34 02:05:12 26° 267° (W) 02:08:52 437.525
EO-79 24 Jul 02:12:24 02:16:36 67° 290° (WNW) 02:20:47 145.935-145.965
NANOSAT C BR1 24 Jul 02:13:16 02:17:29 72° 289° (WNW) 02:21:40 145.865
ISS 24 Jul 02:18:12 02:21:18 41° 188° (S) 02:24:24 437.550
BUGSAT 1 24 Jul 02:20:28 02:24:28 44° 99° (E) 02:28:22 437.445
MOZHAYETS 4 24 Jul 02:34:14 02:37:48 23° 57° (ENE) 02:41:22
M-CUBED/EXP-1 PRIME 24 Jul 02:34:49 02:38:03 20° 312° (NW) 02:41:23 437.505
50 SAT 24 Jul 02:34:51 02:37:32 21° 267° (W) 02:40:14 437.505
RS-15 24 Jul 02:35:25 02:46:59 53° 243° (WSW) 02:58:01 29.354- 29.394
VELOX 1 24 Jul 02:38:06 02:40:51 16° 273° (W) 02:43:36 145.980
DX 1 24 Jul 02:46:03 02:49:55 30° 265° (W) 02:53:50 434.975-435.025
BEESAT 24 Jul 02:58:17 03:02:50 45° 64° (ENE) 03:07:23 436.000
Tancredo 1 24 Jul 02:59:26 03:01:40 19° 205° (SSW) 03:03:53 437.200
nSIGHT-1 24 Jul 03:01:38 03:04:33 31° 197° (SSW) 03:07:28 .
FO-29 24 Jul 03:04:48 03:08:19 14° 332° (NNW) 03:11:43 435.910
CUBESAT XI-V 24 Jul 03:07:04 03:09:17 13° 49° (NE) 03:11:31 437.345
ITUPSAT 1 24 Jul 03:10:30 03:15:10 54° 67° (ENE) 03:19:52 437.325
Oscar 19 24 Jul 03:13:20 03:18:26 58° 102° (ESE) 03:23:33 437.125/150
DUCHIFAT 1 24 Jul 03:22:37 03:25:54 22° 302° (WNW) 03:29:09 145.980
POLYITAN 1 24 Jul 03:23:23 03:26:26 19° 304° (NW) 03:29:27 437.675
O/OREOS (USA 219) 24 Jul 03:25:42 03:28:19 15° 260° (W) 03:30:56 437.305
KKS-1 24 Jul 03:26:23 03:28:22 13° 47° (NE) 03:30:20 437.445
Gurwin Techsat 1B 24 Jul 03:29:21 03:34:36 54° 101° (E) 03:39:48 435.225
UKube-1 24 Jul 03:32:33 03:35:29 18° 271° (W) 03:38:26 .
QB50P2 24 Jul 03:36:48 03:39:14 15° 308° (NW) 03:41:40 145.880/145.840
YUBILEINY 24 Jul 03:46:37 03:51:45 16° 33° (NNE) 03:56:51 435.215
EO-79 24 Jul 03:49:37 03:51:37 13° 310° (NW) 03:53:38 145.935-145.965
NANOSAT C BR1 24 Jul 03:50:20 03:52:30 14° 309° (NW) 03:54:39 145.865
ISS 24 Jul 03:54:48 03:57:17 20° 207° (SSW) 03:59:46 437.550
BUGSAT 1 24 Jul 03:56:07 03:59:41 28° 299° (WNW) 04:03:11 437.445
STARS 24 Jul 03:59:53 04:01:38 12° 47° (NE) 04:03:24 437.465
MOZHAYETS 4 24 Jul 04:10:00 04:14:35 69° 257° (WSW) 04:19:10
AO-7 24 Jul 04:25:34 04:32:59 33° 93° (E) 04:40:19 .
BEESAT 24 Jul 04:36:26 04:40:45 33° 264° (W) 04:45:06 436.000
nSIGHT-1 24 Jul 04:39:02 04:40:15 12° 216° (SW) 04:41:28 .
CUBESAT XI-V 24 Jul 04:41:17 04:45:49 61° 69° (ENE) 04:50:22 437.345
ITUPSAT 1 24 Jul 04:49:13 04:53:18 27° 267° (W) 04:57:24 437.325
RS-15 24 Jul 04:50:07 04:56:15 16° 269° (W) 05:02:17 29.354- 29.394
Oscar 19 24 Jul 04:53:03 04:57:32 31° 302° (WNW) 05:02:01 437.125/150
KKS-1 24 Jul 04:59:40 05:04:03 57° 68° (ENE) 05:08:29 437.445
ITAMSAT 1 24 Jul 05:02:13 05:07:17 47° 99° (E) 05:12:17 435.822/435.867
Gurwin Techsat 1B 24 Jul 05:09:37 05:14:23 34° 301° (WNW) 05:19:07 435.225
STRAND 1 24 Jul 05:28:41 05:29:54 11° 40° (NE) 05:31:08 437.568
STARS 24 Jul 05:32:46 05:37:06 55° 68° (ENE) 05:41:28 437.465
YUBILEINY 24 Jul 05:43:17 05:51:37 43° 62° (ENE) 05:59:50 435.215
MOZHAYETS 4 24 Jul 05:51:00 05:52:38 12° 277° (W) 05:54:15
DOVE 4 24 Jul 06:06:33 06:10:36 22° 87° (E) 06:14:33 437.250
AO-7 24 Jul 06:18:11 06:26:36 80° 296° (WNW) 06:34:56 .
CUBESAT XI-V 24 Jul 06:19:55 06:23:35 23° 270° (W) 06:27:16 437.345
FO-29 24 Jul 06:29:16 06:32:04 12° 23° (NNE) 06:34:51 435.910
PCSat 24 Jul 06:31:12 06:36:14 40° 118° (ESE) 06:41:17 145.827
XW-2C 24 Jul 06:36:18 06:37:35 11° 86° (E) 06:38:51 145.795 - 145.815
KKS-1 24 Jul 06:37:19 06:40:57 24° 268° (W) 06:44:37 437.445
ITAMSAT 1 24 Jul 06:41:55 06:46:41 37° 300° (WNW) 06:51:24 435.822/435.867
CUTE-I 24 Jul 06:42:27 06:45:45 16° 85° (E) 06:49:02 437.470
NUDT-PHONESAT 24 Jul 06:48:33 06:49:47 11° 86° (E) 06:51:00 437.300
LilacSat-2 24 Jul 06:57:14 06:59:59 19° 91° (E) 07:02:44 437.200
KAITUO 1B 24 Jul 07:00:26 07:02:43 15° 89° (E) 07:05:00 145.475/437.950
STRAND 1 24 Jul 07:03:04 07:07:50 39° 62° (ENE) 07:12:36 437.568
STARS 24 Jul 07:10:06 07:13:45 24° 268° (W) 07:17:25 437.465
XW-2F 24 Jul 07:13:40 07:16:46 24° 93° (E) 07:19:53 145.980 - 146.000
SO-50 24 Jul 07:32:19 07:35:55 23° 119° (ESE) 07:39:30 436.795
YUBILEINY 24 Jul 07:40:17 07:48:56 64° 267° (W) 07:57:29 435.215
XW-2D 24 Jul 07:41:19 07:44:59 47° 100° (E) 07:48:37 145.860 - 145.880
DOVE 4 24 Jul 07:43:32 07:48:53 80° 288° (WNW) 07:54:07 437.250
XW-2B 24 Jul 07:51:19 07:55:03 58° 101° (ESE) 07:58:46 145.730 - 145.750
CUTE 1.7 + AOD 2 24 Jul 08:06:30 08:09:43 20° 90° (E) 08:12:55 437.475
FO-29 24 Jul 08:08:25 08:14:44 28° 47° (NE) 08:21:02 435.910
XW-2C 24 Jul 08:08:37 08:12:23 87° 105° (ESE) 08:16:10 145.795 - 145.815
AO-7 24 Jul 08:11:23 08:18:23 31° 320° (NW) 08:25:22 .
PCSat 24 Jul 08:14:10 08:19:32 57° 320° (NW) 08:24:55 145.827
NUDT-PHONESAT 24 Jul 08:20:33 08:24:16 90° 42° (NE) 08:27:57 437.300
SEEDS 24 Jul 08:20:50 08:23:52 19° 89° (E) 08:26:54 437.485
CUTE-I 24 Jul 08:21:18 08:26:43 79° 106° (ESE) 08:32:04 437.470
XW-2A 24 Jul 08:22:00 08:23:59 15° 90° (E) 08:25:56 145.665 - 145.685
ITAMSAT 1 24 Jul 08:23:51 08:24:49 10° 322° (NW) 08:25:47 435.822/435.867
HO-68 24 Jul 08:30:32 08:37:11 39° 96° (E) 08:43:48 435.675
LilacSat-2 24 Jul 08:30:52 08:34:35 54° 290° (WNW) 08:38:17 437.200
KAITUO 1B 24 Jul 08:33:27 08:37:09 66° 288° (WNW) 08:40:50 145.475/437.950
UWE-3 24 Jul 08:36:08 08:38:24 14° 85° (E) 08:40:39 435.000/436.395/437.385
STRAND 1 24 Jul 08:42:06 08:47:01 43° 262° (W) 08:51:57 437.568
M-CUBED/EXP-1 PRIME 24 Jul 08:46:24 08:48:13 13° 40° (NE) 08:50:05 437.505
XW-2F 24 Jul 08:47:32 08:51:04 41° 293° (WNW) 08:54:36 145.980 - 146.000
ZACube-1 24 Jul 08:52:39 08:54:16 12° 84° (E) 08:55:52 437.345
UNISAT 6 24 Jul 09:01:24 09:04:42 20° 55° (NE) 09:07:58 437.425
AAUSAT CUBESAT 2 24 Jul 09:07:08 09:10:39 25° 92° (E) 09:14:09 437.432
CUBEBUG 2 24 Jul 09:11:11 09:15:21 42° 98° (E) 09:19:22 437.445
SO-50 24 Jul 09:11:24 09:15:57 80° 321° (NW) 09:20:29 436.795
XW-2D 24 Jul 09:15:58 09:18:57 23° 299° (WNW) 09:21:56 145.860 - 145.880
PRISM 24 Jul 09:16:32 09:19:35 20° 56° (ENE) 09:22:39 437.425
Oscar 11 24 Jul 09:19:46 09:22:28 16° 87° (E) 09:25:09 .
DOVE 4 24 Jul 09:22:05 09:25:50 20° 308° (NW) 09:29:33 437.250
XW-2B 24 Jul 09:26:11 09:28:55 19° 301° (WNW) 09:31:40 145.730 - 145.750
AO-73 24 Jul 09:32:10 09:35:35 24° 92° (E) 09:38:56 145.935
YUBILEINY 24 Jul 09:38:36 09:43:57 18° 292° (WNW) 09:49:17 435.215
CUTE 1.7 + AOD 2 24 Jul 09:41:44 09:45:56 61° 289° (WNW) 09:50:07 437.475
XW-2C 24 Jul 09:43:59 09:46:03 14° 305° (NW) 09:48:07 145.795 - 145.815
TIGRISAT 24 Jul 09:44:44 09:48:57 37° 64° (ENE) 09:53:08 435.000
FO-29 24 Jul 09:51:00 09:58:46 78° 69° (ENE) 10:06:37 435.910
XW-2A 24 Jul 09:53:46 09:57:04 56° 289° (WNW) 10:00:21 145.665 - 145.685
NUDT-PHONESAT 24 Jul 09:55:44 09:57:37 14° 305° (NW) 09:59:30 437.300
SEEDS 24 Jul 09:55:48 09:59:59 65° 289° (WNW) 10:04:10 437.485
PCSat 24 Jul 09:59:23 10:03:59 27° 345° (NNW) 10:08:37 145.827
CUTE-I 24 Jul 10:01:58 10:06:17 25° 307° (NW) 10:10:35 437.470
AO-7 24 Jul 10:03:59 10:08:43 17° 346° (NNW) 10:13:27 .
KAITUO 1B 24 Jul 10:09:28 10:10:27 11° 308° (NW) 10:11:27 145.475/437.950
UWE-3 24 Jul 10:11:16 10:15:33 88° 293° (WNW) 10:19:43 435.000/436.395/437.385
M-CUBED/EXP-1 PRIME 24 Jul 10:18:05 10:21:47 57° 63° (ENE) 10:25:51 437.505
HO-68 24 Jul 10:18:16 10:25:19 62° 298° (WNW) 10:32:19 435.675
DELFI C3 24 Jul 10:18:41 10:21:16 16° 88° (E) 10:23:50 145.870
ZACube-1 24 Jul 10:27:06 10:31:19 80° 103° (ESE) 10:35:28 437.345
UNISAT 6 24 Jul 10:36:16 10:40:56 83° 257° (WSW) 10:45:30 437.425
AAUSAT CUBESAT 2 24 Jul 10:42:19 10:46:20 47° 292° (WNW) 10:50:20 437.432
CUBEBUG 2 24 Jul 10:48:04 10:51:52 30° 299° (WNW) 10:55:34 437.445
PRISM 24 Jul 10:50:23 10:54:28 67° 256° (WSW) 10:58:37 437.425
SO-50 24 Jul 10:52:57 10:56:59 31° 342° (NNW) 11:01:03 436.795
Oscar 11 24 Jul 10:54:51 10:59:11 81° 287° (WNW) 11:03:30 .
EO-88 24 Jul 10:58:51 11:01:50 23° 93° (E) 11:04:50 145.990 - 145.960
AIST 2D 24 Jul 11:01:15 11:04:11 26° 64° (ENE) 11:07:08 435.315
AO-73 24 Jul 11:08:03 11:12:05 49° 292° (WNW) 11:16:04 145.935
DUCHIFAT 1 24 Jul 11:10:38 11:13:42 20° 56° (ENE) 11:16:46 145.980
POLYITAN 1 24 Jul 11:11:26 11:14:49 23° 58° (ENE) 11:18:11 437.675
CUTE 1.7 + AOD 2 24 Jul 11:19:18 11:20:58 12° 310° (NW) 11:22:38 437.475
TIGRISAT 24 Jul 11:21:20 11:25:40 38° 263° (W) 11:29:56 435.000
QB50P2 24 Jul 11:23:57 11:27:42 30° 62° (ENE) 11:31:26 145.880/145.840
SEEDS 24 Jul 11:33:03 11:34:56 13° 309° (NW) 11:36:48 437.485
EO-79 24 Jul 11:36:07 11:40:00 35° 64° (ENE) 11:43:54 145.935-145.965
NANOSAT C BR1 24 Jul 11:36:48 11:40:37 33° 63° (ENE) 11:44:26 145.865
FO-29 24 Jul 11:37:32 11:44:26 34° 271° (W) 11:51:27 435.910
BUGSAT 1 24 Jul 11:43:32 11:46:01 15° 53° (NE) 11:48:29 437.445
Gurwin Techsat 1B 24 Jul 11:44:25 11:44:58 10° 37° (NE) 11:45:31 435.225
PCSat 24 Jul 11:44:31 11:49:01 25° 11° (N) 11:53:30 145.827
UWE-3 24 Jul 11:48:48 11:51:24 16° 307° (NW) 11:53:59 435.000/436.395/437.385
DELFI C3 24 Jul 11:52:29 11:56:31 71° 288° (WNW) 12:00:30 145.870
AO-7 24 Jul 11:53:41 11:58:26 17° 14° (NNE) 12:03:11 .
M-CUBED/EXP-1 PRIME 24 Jul 11:53:45 11:56:38 20° 264° (W) 11:59:40 437.505
ESTCUBE 1 24 Jul 11:54:03 11:56:21 14° 85° (E) 11:58:38 437.505/2401.250
ZACube-1 24 Jul 12:04:18 12:07:07 18° 305° (NW) 12:09:54 437.345
HO-68 24 Jul 12:06:42 12:11:50 22° 321° (NW) 12:16:59 435.675
UNISAT 6 24 Jul 12:15:50 12:18:21 14° 275° (W) 12:20:50 437.425
Oscar 11 24 Jul 12:32:08 12:34:41 16° 307° (NW) 12:37:15 .
EO-88 24 Jul 12:32:14 12:35:40 40° 293° (WNW) 12:39:06 145.990 - 145.960
AIST 2D 24 Jul 12:34:07 12:37:19 34° 263° (W) 12:40:32 435.315
SO-50 24 Jul 12:34:47 12:38:35 26° 6° (N) 12:42:26 436.795
LO-87 24 Jul 12:38:57 12:42:27 43° 99° (E) 12:45:53 145.935 - 145.965
VELOX 1 24 Jul 12:44:41 12:45:19 10° 82° (E) 12:45:57 145.980
DUCHIFAT 1 24 Jul 12:44:42 12:48:57 74° 257° (WSW) 12:53:12 145.980
POLYITAN 1 24 Jul 12:46:03 12:50:17 60° 258° (WSW) 12:54:32 437.675
Oscar 19 24 Jul 12:59:01 13:03:36 35° 60° (ENE) 13:08:14 437.125/150
QB50P2 24 Jul 12:59:19 13:03:23 43° 262° (W) 13:07:29 145.880/145.840
NO-84 24 Jul 13:02:29 13:04:59 21° 142° (SE) 13:07:38 435.350 FM
EO-79 24 Jul 13:11:49 13:15:46 36° 263° (W) 13:19:44 145.935-145.965
NANOSAT C BR1 24 Jul 13:12:18 13:16:17 38° 263° (W) 13:20:17 145.865
BUGSAT 1 24 Jul 13:16:30 13:20:45 81° 73° (ENE) 13:25:00 437.445
Gurwin Techsat 1B 24 Jul 13:18:44 13:23:31 35° 59° (ENE) 13:28:19 435.225
PCSat 24 Jul 13:28:22 13:33:38 47° 35° (NE) 13:38:54 145.827
DELFI C3 24 Jul 13:28:46 13:30:36 13° 308° (NW) 13:32:25 145.870
ESTCUBE 1 24 Jul 13:29:21 13:33:55 81° 106° (ESE) 13:38:26 437.505/2401.250
SPROUT 24 Jul 13:39:00 13:42:55 33° 95° (E) 13:46:47 437.525
AO-7 24 Jul 13:41:46 13:48:46 31° 40° (NE) 13:55:47 .
50 SAT 24 Jul 13:49:33 13:51:38 15° 90° (E) 13:53:44 437.505
HO-68 24 Jul 13:55:52 13:57:05 10° 346° (NNW) 13:58:17 435.675
LO-87 24 Jul 14:12:47 14:15:41 23° 298° (WNW) 14:18:34 145.935 - 145.965
SO-50 24 Jul 14:15:36 14:19:59 46° 30° (NNE) 14:24:23 436.795
VELOX 1 24 Jul 14:18:15 14:22:43 62° 103° (ESE) 14:27:08 145.980
BEESAT 3 24 Jul 14:20:01 14:23:44 37° 125° (SE) 14:27:30 437.485
DUCHIFAT 1 24 Jul 14:24:00 14:25:24 11° 276° (W) 14:26:48 145.980
DX 1 24 Jul 14:26:18 14:30:09 29° 94° (E) 14:33:57 434.975-435.025
Oscar 19 24 Jul 14:37:52 14:42:49 50° 260° (W) 14:47:50 437.125/150
NO-84 24 Jul 14:38:41 14:41:58 65° 163° (SSE) 14:45:35 435.350 FM
AO-85 24 Jul 14:44:16 14:48:08 57° 131° (SE) 14:52:01 145.980
ITAMSAT 1 24 Jul 14:49:00 14:53:34 31° 57° (ENE) 14:58:09 435.822/435.867
BUGSAT 1 24 Jul 14:54:03 14:56:39 16° 272° (W) 14:59:17 437.445
Gurwin Techsat 1B 24 Jul 14:58:09 15:03:20 52° 260° (W) 15:08:34 435.225
BEESAT 2 24 Jul 14:58:17 15:01:56 34° 124° (SE) 15:05:37 435.950
RS-15 24 Jul 15:01:21 15:07:50 16° 91° (E) 15:14:21 29.354- 29.394
ESTCUBE 1 24 Jul 15:06:58 15:10:14 20° 305° (NW) 15:13:30 437.505/2401.250
UKube-1 24 Jul 15:10:11 15:14:25 48° 100° (E) 15:18:37 .
PCSat 24 Jul 15:11:54 15:17:11 52° 238° (WSW) 15:22:26 145.827
SPROUT 24 Jul 15:14:54 15:18:53 38° 295° (WNW) 15:22:49 437.525
50 SAT 24 Jul 15:21:19 15:24:44 59° 288° (WNW) 15:28:07 437.505
AO-7 24 Jul 15:32:12 15:40:35 80° 64° (ENE) 15:49:00 .
HO-68 24 Jul 15:40:36 15:41:45 10° 13° (NNE) 15:42:55 435.675
DOVE 4 24 Jul 15:45:03 15:46:40 11° 42° (NE) 15:48:19 437.250
VELOX 1 24 Jul 15:55:14 15:58:50 24° 303° (WNW) 16:02:24 145.980
SO-50 24 Jul 15:56:09 16:00:32 48° 232° (SW) 16:04:55 436.795
BEESAT 3 24 Jul 15:57:21 16:01:16 48° 326° (NW) 16:05:14 437.485
MOZHAYETS 4 24 Jul 15:58:18 16:01:23 18° 88° (E) 16:04:27
DX 1 24 Jul 16:02:18 16:06:31 46° 294° (WNW) 16:10:43 434.975-435.025
O/OREOS (USA 219) 24 Jul 16:05:14 16:08:53 25° 106° (ESE) 16:12:32 437.305
NO-84 24 Jul 16:15:55 16:19:24 86° 184° (S) 16:23:14 435.350 FM
AO-85 24 Jul 16:25:04 16:28:43 35° 333° (NNW) 16:32:25 145.980
ITAMSAT 1 24 Jul 16:27:38 16:32:48 58° 258° (WSW) 16:38:00 435.822/435.867
BEESAT 24 Jul 16:28:25 16:32:51 37° 97° (E) 16:37:16 436.000
CUTE-I 24 Jul 16:34:20 16:37:03 14° 43° (NE) 16:39:46 437.470
BEESAT 2 24 Jul 16:35:37 16:39:35 52° 325° (NW) 16:43:35 435.950
ITUPSAT 1 24 Jul 16:41:09 16:45:46 46° 99° (E) 16:50:20 437.325
UKube-1 24 Jul 16:46:33 16:50:17 28° 300° (WNW) 16:53:59 .
PCSat 24 Jul 16:57:51 16:59:24 11° 258° (WSW) 17:00:56 145.827
XW-2D 24 Jul 16:58:13 16:59:20 11° 52° (NE) 17:00:27 145.860 - 145.880
RS-15 24 Jul 17:05:36 17:17:14 53° 117° (ESE) 17:28:56 29.354- 29.394
XW-2B 24 Jul 17:07:33 17:09:17 13° 54° (NE) 17:11:01 145.730 - 145.750
DOVE 4 24 Jul 17:18:22 17:23:04 42° 64° (ENE) 17:28:00 437.250
HO-68 24 Jul 17:21:51 17:26:58 22° 39° (NE) 17:32:05 435.675
XW-2C 24 Jul 17:23:54 17:26:26 17° 58° (ENE) 17:28:58 145.795 - 145.815
AO-7 24 Jul 17:26:50 17:34:12 33° 267° (W) 17:41:38 .
NUDT-PHONESAT 24 Jul 17:34:07 17:36:31 17° 58° (ENE) 17:38:56 437.300
MOZHAYETS 4 24 Jul 17:34:33 17:39:08 80° 287° (WNW) 17:43:41
BEESAT 3 24 Jul 17:36:24 17:39:40 23° 349° (N) 17:42:57 437.485
DX 1 24 Jul 17:40:56 17:41:42 10° 315° (NW) 17:42:29 434.975-435.025
O/OREOS (USA 219) 24 Jul 17:43:33 17:47:59 59° 306° (NW) 17:52:26 437.305
LilacSat-2 24 Jul 17:45:45 17:48:59 27° 63° (ENE) 17:52:12 437.200
KAITUO 1B 24 Jul 17:47:04 17:49:57 22° 61° (ENE) 17:52:50 145.475/437.950
NO-84 24 Jul 17:53:16 17:56:47 48° 205° (SSW) 18:00:38 435.350 FM
XW-2F 24 Jul 18:01:09 18:04:33 33° 66° (ENE) 18:07:56 145.980 - 146.000
BEESAT 24 Jul 18:06:14 18:10:42 40° 297° (WNW) 18:15:08 436.000
AO-85 24 Jul 18:07:00 18:10:05 21° 357° (N) 18:13:14 145.980
CUBESAT XI-V 24 Jul 18:07:26 18:12:02 55° 100° (E) 18:16:38 437.345
CUTE-I 24 Jul 18:10:49 18:16:00 51° 65° (ENE) 18:21:14 437.470
ITAMSAT 1 24 Jul 18:11:51 18:13:26 11° 279° (W) 18:15:01 435.822/435.867
BEESAT 2 24 Jul 18:14:47 18:18:07 23° 348° (NNW) 18:21:27 435.950
ITUPSAT 1 24 Jul 18:19:14 18:23:30 34° 300° (WNW) 18:27:46 437.325
KKS-1 24 Jul 18:19:38 18:23:54 40° 98° (E) 18:28:08 437.445
XW-2D 24 Jul 18:29:06 18:32:50 67° 72° (ENE) 18:36:34 145.860 - 145.880
XW-2B 24 Jul 18:39:07 18:42:53 81° 74° (ENE) 18:46:39 145.730 - 145.750
CUBEBUG 2 24 Jul 18:41:11 18:44:12 17° 54° (NE) 18:47:10 437.445
STARS 24 Jul 18:50:58 18:55:06 37° 97° (E) 18:59:12 437.465
YUBILEINY 24 Jul 18:54:22 19:02:05 36° 81° (E) 19:09:48 435.215
DOVE 4 24 Jul 18:56:06 19:00:47 40° 265° (W) 19:05:43 437.250
XW-2C 24 Jul 18:56:30 19:00:14 67° 258° (WSW) 19:04:00 145.795 - 145.815
XW-2A 24 Jul 19:00:00 19:02:22 18° 60° (ENE) 19:04:43 145.665 - 145.685
CUTE 1.7 + AOD 2 24 Jul 19:05:43 19:09:33 35° 65° (ENE) 19:13:24 437.475
NUDT-PHONESAT 24 Jul 19:06:21 19:10:01 68° 257° (WSW) 19:13:42 437.300
HO-68 24 Jul 19:06:27 19:13:29 61° 62° (ENE) 19:20:33 435.675
MOZHAYETS 4 24 Jul 19:12:48 19:15:38 17° 308° (NW) 19:18:28
BEESAT 3 24 Jul 19:15:03 19:18:23 23° 13° (NNE) 19:21:41 437.485
RS-15 24 Jul 19:17:02 19:29:27 76° 325° (NW) 19:41:47 29.354- 29.394
SEEDS 24 Jul 19:19:02 19:22:44 32° 63° (ENE) 19:26:29 437.485
LilacSat-2 24 Jul 19:19:37 19:23:09 37° 263° (W) 19:26:43 437.200
KAITUO 1B 24 Jul 19:20:08 19:23:43 48° 260° (W) 19:27:20 145.475/437.950
O/OREOS (USA 219) 24 Jul 19:25:19 19:28:21 17° 330° (NNW) 19:31:21 437.305
NO-84 24 Jul 19:31:21 19:33:44 16° 223° (SW) 19:36:12 435.350 FM
XW-2F 24 Jul 19:35:25 19:38:43 29° 265° (W) 19:42:02 145.980 - 146.000
UWE-3 24 Jul 19:39:05 19:43:00 30° 62° (ENE) 19:46:51 435.000/436.395/437.385
CUBESAT XI-V 24 Jul 19:45:14 19:49:11 28° 300° (WNW) 19:53:09 437.345
BEESAT 24 Jul 19:46:44 19:47:20 10° 318° (NW) 19:47:54 436.000
AO-85 24 Jul 19:48:00 19:51:33 29° 22° (NNE) 19:55:14 145.980
CUTE-I 24 Jul 19:51:24 19:56:17 35° 265° (W) 20:01:12 437.470
BEESAT 2 24 Jul 19:53:41 19:57:01 23° 12° (NNE) 20:00:20 435.950
ZACube-1 24 Jul 19:54:16 19:57:51 25° 60° (ENE) 20:01:23 437.345
KKS-1 24 Jul 19:56:21 20:00:25 34° 298° (WNW) 20:04:27 437.445
AAUSAT CUBESAT 2 24 Jul 20:03:47 20:07:40 42° 67° (ENE) 20:11:35 437.432
XW-2D 24 Jul 20:05:08 20:07:27 16° 271° (W) 20:09:46 145.860 - 145.880
CUBEBUG 2 24 Jul 20:15:32 20:20:13 84° 75° (ENE) 20:24:49 437.445
XW-2B 24 Jul 20:15:48 20:17:37 13° 273° (W) 20:19:25 145.730 - 145.750
Oscar 11 24 Jul 20:20:59 20:24:44 30° 62° (ENE) 20:28:30 .
STARS 24 Jul 20:27:23 20:31:27 36° 297° (WNW) 20:35:28 437.465
XW-2A 24 Jul 20:31:30 20:34:49 51° 259° (W) 20:38:08 145.665 - 145.685
AO-73 24 Jul 20:33:59 20:38:10 46° 67° (ENE) 20:42:18 145.935
CUTE 1.7 + AOD 2 24 Jul 20:41:34 20:45:25 34° 265° (W) 20:49:17 437.475
STRAND 1 24 Jul 20:44:47 20:49:35 38° 97° (E) 20:54:20 437.568
YUBILEINY 24 Jul 20:49:27 20:58:18 74° 286° (WNW) 21:07:10 435.215
BEESAT 3 24 Jul 20:52:44 20:56:43 53° 36° (NE) 21:00:39 437.485
SEEDS 24 Jul 20:54:31 20:58:24 37° 264° (W) 21:02:19 437.485
HO-68 24 Jul 20:54:55 21:01:34 40° 264° (W) 21:08:17 435.675
DELFI C3 24 Jul 21:10:35 21:13:51 25° 61° (ENE) 21:17:09 145.870
UWE-3 24 Jul 21:14:55 21:19:19 47° 261° (W) 21:23:38 435.000/436.395/437.385
AO-85 24 Jul 21:28:18 21:32:23 89° 201° (SSW) 21:36:43 145.980
ZACube-1 24 Jul 21:29:33 21:33:54 55° 260° (W) 21:38:10 437.345
BEESAT 2 24 Jul 21:31:34 21:35:34 50° 34° (NE) 21:39:32 435.950
RS-15 24 Jul 21:31:42 21:43:52 55° 356° (N) 21:55:43 29.354- 29.394
AAUSAT CUBESAT 2 24 Jul 21:39:43 21:43:16 28° 266° (W) 21:46:52 437.432
EO-88 24 Jul 21:43:12 21:46:26 31° 65° (ENE) 21:49:42 145.990 - 145.960
CUBEBUG 2 24 Jul 21:54:22 21:57:26 17° 273° (W) 22:00:26 437.445
Oscar 11 24 Jul 21:56:39 22:00:46 43° 262° (W) 22:04:54 .
AO-73 24 Jul 22:10:49 22:14:36 27° 267° (W) 22:18:19 145.935
ISS 24 Jul 22:16:10 22:17:13 11° 143° (SE) 22:18:17 437.550
